Tracking 22993 objects as of 10-May-2021
HD Live streaming from Space Station
objects crossing your sky now

SL-3 R/B

Track SL-3 R/B now!
10-day predictions


NORAD ID: 7275
Int'l Code: 1974-025B
Perigee: 837.8 km
Apogee: 918.1 km
Inclination: 81.2 °
Period: 102.4 minutes
Semi major axis: 7248 km
RCS: 7.5013 m2 (large)
Launch date: April 24, 1974
Source: Commonwealth of Independent States (former USSR) (CIS)
Launch site: PLESETSK MISSILE AND SPACE COMPLEX (PKMTR)

Note: This is a ROCKET BODY
aabbcc
Your satellite tracking list
Your tracking list is empty




NASA's NSSDC Master Catalog

Two Line Element Set (TLE):
1 07275U 74025B   21129.76945018 -.00000005  00000-0 -10508-4 0  9999
2 07275  81.2466  18.1582 0055373 192.6640 167.3142 14.06665298413049
Source of the keplerian elements: AFSPC